Total_Precipitation_Accumulation
1.26 1.22 1.16 1.21 1.09 1.02 1.08 1.15 1.18 1.20 1.10 0.95 0.90 0.92 1.00 0.94 0.95 1.10 1.41 1.88 2.44 2.92 3.14 3.07 2.86 2.72 2.78 2.76 2.89 3.10 3.30 3.43 3.26 3.11 2.91 2.75 2.84 2.92 2.59 2.51 2.59 2.65 2.82
1.29 1.34 1.28 1.22 1.15 1.07 1.10 1.27 1.23 1.25 1.23 1.15 0.99 0.99 1.02 0.97 0.96 1.00 1.15 1.52 1.90 2.35 2.89 3.27 3.08 2.80 2.58 2.53 2.57 2.76 3.06 3.13 2.86 2.81 2.83 2.87 3.04 3.12 2.74 2.54 2.47 2.43 2.62
1.14 1.21 1.23 1.18 1.16 1.17 1.19 1.24 1.28 1.35 1.27 1.17 1.12 1.08 1.06 1.02 0.93 0.97 0.94 1.10 1.24 1.63 2.15 2.63 2.95 2.93 2.75 2.66 2.63 2.74 2.97 2.90 2.66 2.74 2.89 2.90 2.92 2.98 2.91 2.70 2.47 2.37 2.50
1.21 1.20 1.23 1.22 1.25 1.29 1.28 1.31 1.39 1.38 1.34 1.33 1.28 1.24 1.11 1.08 1.02 1.00 0.94 0.94 1.02 1.07 1.35 1.69 2.10 2.47 2.69 2.81 3.00 3.18 3.04 2.76 2.55 2.53 2.68 2.56 2.49 2.58 2.71 2.68 2.44 2.26 2.18
1.30 1.41 1.44 1.45 1.40 1.42 1.42 1.37 1.39 1.32 1.33 1.34 1.27 1.29 1.24 1.20 1.13 1.00 1.02 0.99 1.00 0.96 1.05 1.08 1.26 1.51 1.91 2.41 3.04 3.31 2.92 2.66 2.50 2.32 2.28 2.23 2.24 2.35 2.41 2.27 2.14 2.01 1.96
1.55 1.73 1.81 1.70 1.66 1.65 1.63 1.57 1.62 1.52 1.40 1.44 1.34 1.32 1.29 1.19 1.22 1.18 1.16 1.10 1.13 1.07 1.01 0.93 0.92 0.89 1.15 1.70 2.45 2.92 2.85 2.70 2.50 2.37 2.21 2.15 2.24 2.37 2.32 2.20 2.11 2.09 2.07
1.86 2.01 1.92 2.00 2.01 1.87 1.87 1.93 1.96 1.93 1.75 1.61 1.67 1.56 1.32 1.13 1.20 1.17 1.17 1.22 1.22 1.30 1.29 1.13 1.00 0.94 0.95 1.17 1.73 2.37 2.73 2.71 2.69 2.53 2.41 2.32 2.25 2.28 2.27 2.21 2.16 2.14 2.18
2.08 2.12 2.19 2.28 2.30 2.30 2.23 2.12 2.23 2.38 2.12 1.89 2.00 2.28 1.91 1.56 1.22 1.00 1.11 1.19 1.24 1.46 1.50 1.28 1.07 1.02 1.02 1.14 1.14 1.50 1.96 2.39 2.63 2.67 2.56 2.45 2.37 2.38 2.41 2.27 2.10 2.11 2.15
2.30 2.34 2.40 2.44 2.45 2.31 2.30 2.40 2.53 2.87 2.68 2.31 2.10 2.38 2.23 1.93 1.64 1.21 1.10 1.18 1.25 1.40 1.49 1.53 1.41 1.31 1.21 1.24 1.24 1.08 1.26 1.72 2.22 2.60 2.68 2.63 2.48 2.65 2.86 2.61 2.21 2.05 1.94
2.28 2.39 2.39 2.37 2.33 2.27 2.33 2.40 2.45 2.87 3.09 2.79 2.44 2.03 1.82 1.78 1.90 1.64 1.23 1.16 1.25 1.27 1.36 1.45 1.42 1.48 1.45 1.46 1.48 1.23 1.10 1.35 1.78 2.34 2.74 3.06 2.85 2.64 2.66 2.74 2.52 2.17 1.92
2.19 2.20 2.19 2.27 2.28 2.30 2.36 2.53 2.66 2.93 2.96 2.96 2.77 2.54 2.31 1.99 1.66 1.76 1.72 1.43 1.35 1.26 1.33 1.45 1.50 1.59 1.62 1.65 1.81 1.55 1.23 1.14 1.39 1.89 2.49 3.08 3.22 2.96 2.69 2.64 2.57 2.38 2.09
2.16 2.07 2.01 2.08 2.21 2.34 2.38 2.46 2.62 2.88 3.00 3.09 3.01 2.72 2.61 2.44 2.17 2.07 1.84 1.69 1.65 1.41 1.36 1.40 1.43 1.55 1.72 1.80 1.78 1.92 1.57 1.19 1.14 1.44 1.82 2.37 3.02 3.26 3.09 2.96 2.86 2.77 2.55
1.84 1.89 1.94 2.01 2.14 2.24 2.31 2.43 2.56 2.61 2.73 2.98 3.00 2.83 2.61 2.41 2.40 2.28 2.19 1.88 1.68 1.45 1.42 1.42 1.39 1.43 1.46 1.74 1.88 1.99 1.66 1.31 1.08 1.11 1.27 1.56 2.12 2.70 3.01 3.02 3.01 3.14 3.17
1.73 1.68 1.71 1.78 1.99 2.18 2.26 2.36 2.38 2.36 2.42 2.60 2.60 2.69 2.65 2.38 2.35 2.25 2.26 2.38 2.09 1.83 1.62 1.43 1.34 1.38 1.40 1.60 1.91 2.00 1.57 1.40 1.17 1.04 1.05 1.28 1.51 1.71 2.09 2.62 2.93 3.15 3.38
1.51 1.46 1.50 1.53 1.64 1.86 2.09 2.24 2.21 2.14 2.11 2.26 2.33 2.44 2.57 2.61 2.51 2.40 2.38 2.49 2.49 2.23 1.96 1.70 1.48 1.36 1.41 1.53 1.93 1.82 1.59 1.48 1.37 1.18 1.06 1.13 1.21 1.34 1.45 1.78 2.10 2.29 2.49
1.33 1.27 1.27 1.38 1.54 1.65 1.83 2.03 2.11 2.06 2.06 2.14 2.25 2.38 2.53 2.67 2.69 2.47 2.43 2.43 2.34 2.31 2.15 1.77 1.50 1.41 1.49 1.48 1.83 1.81 1.73 1.75 1.52 1.35 1.26 1.22 1.25 1.24 1.26 1.38 1.48 1.54 1.51
1.16 1.15 1.30 1.37 1.45 1.54 1.72 1.96 2.13 2.13 2.06 2.07 2.06 2.14 2.32 2.44 2.66 2.62 2.52 2.44 2.33 2.21 2.12 1.90 1.66 1.50 1.58 1.62 1.73 1.84 1.80 1.68 1.48 1.44 1.31 1.24 1.24 1.26 1.23 1.27 1.38 1.33 1.23
0.90 1.01 1.14 1.20 1.25 1.29 1.48 1.76 1.96 2.01 1.99 1.88 1.83 1.94 2.16 2.34 2.56 2.68 2.64 2.50 2.43 2.30 2.21 2.18 1.99 1.77 1.68 1.70 1.84 1.95 1.89 1.81 1.73 1.73 1.58 1.41 1.33 1.27 1.26 1.22 1.25 1.34 1.30
0.92 1.02 1.10 1.15 1.19 1.25 1.29 1.41 1.59 1.73 1.72 1.66 1.66 1.69 1.72 1.91 2.20 2.40 2.44 2.48 2.52 2.50 2.49 2.35 2.17 2.07 1.97 1.79 1.90 1.97 1.94 1.97 1.87 1.91 1.86 1.72 1.63 1.51 1.40 1.29 1.22 1.23 1.32
0.89 0.97 1.01 1.09 1.19 1.23 1.24 1.26 1.29 1.36 1.40 1.48 1.54 1.53 1.56 1.61 1.85 2.05 2.15 2.32 2.56 2.59 2.64 2.58 2.35 2.22 2.16 1.96 2.02 2.11 2.19 2.15 2.05 1.92 1.94 1.83 1.80 1.70 1.54 1.33 1.22 1.17 1.22
0.84 0.91 0.94 0.95 1.01 1.11 1.21 1.25 1.15 1.12 1.22 1.33 1.34 1.27 1.30 1.46 1.67 1.80 1.78 2.07 2.42 2.62 2.63 2.59 2.47 2.42 2.20 2.02 1.88 1.86 2.04 2.29 2.29 2.26 2.18 1.92 1.80 1.65 1.58 1.53 1.37 1.25 1.23
0.83 0.87 0.83 0.84 0.91 0.94 1.15 1.16 1.00 0.97 1.04 1.16 1.25 1.23 1.13 1.15 1.26 1.38 1.43 1.55 1.80 2.03 2.35 2.57 2.53 2.42 2.12 1.97 1.92 1.91 1.94 2.07 2.25 2.20 2.23 2.23 2.14 2.04 1.90 1.76 1.75 1.61 1.48
0.77 0.79 0.77 0.76 0.78 0.90 0.99 0.87 0.88 0.86 0.93 1.03 1.12 1.21 1.13 1.02 1.15 1.21 1.33 1.39 1.36 1.41 1.71 2.11 2.29 2.32 2.29 2.17 2.10 1.97 1.92 1.97 2.03 2.06 2.26 2.29 2.24 2.22 2.13 2.12 2.21 2.01 1.81
0.76 0.76 0.79 0.79 0.78 0.85 0.87 0.75 0.81 0.81 0.83 0.90 1.04 1.16 1.22 1.15 1.18 1.31 1.28 1.30 1.23 1.19 1.43 1.44 1.68 2.08 2.24 2.33 2.24 2.24 2.37 2.31 2.14 2.04 2.09 2.14 2.01 2.02 2.05 2.08 2.24 2.15 1.99
0.74 0.77 0.82 0.83 0.77 0.77 0.85 0.76 0.79 0.79 0.80 0.85 0.89 0.98 1.09 1.07 1.29 1.41 1.33 1.46 1.44 1.31 1.48 1.58 1.67 1.77 1.95 2.15 2.23 2.19 2.20 2.25 2.21 2.11 1.95 1.84 1.74 1.75 1.83 1.87 1.91 2.01 2.00
0.57 0.67 0.68 0.69 0.73 0.73 0.95 0.88 0.87 0.80 0.82 0.92 0.96 0.94 1.12 1.17 1.33 1.32 1.20 1.42 1.46 1.38 1.34 1.41 1.42 1.45 1.40 1.58 1.87 1.93 2.09 2.14 2.07 1.99 1.76 1.64 1.59 1.63 1.67 1.54 1.42 1.44 1.46